Вернуться в каталог

STARLINK-4351

АктивенСвязьSSO
NORAD 53193·PAYLOAD·🇺🇸 United States

Запущен Jul 22, 2022 с Vandenberg Space Force Base

Loading…

Ближайшие Пролёты (ближайшие 24 часа)

TLE

СвежийSource: CelesTrak SupGP

Эпоха: Sep 14, 2026, 13:39 UTC

1 53193C 22084E   26257.56923611  .00055939  00000+0  17365-2 0  2573
2 53193  97.2833 312.4700 0001155 103.5088  61.0252 15.33410077    17

Отслеживайте STARLINK-4351 в реальном времени с AllMySat

Download on the App Store